Home   Weather   Belgium   Arlon   Past weeks
Flag for Belgium

Past Weather in Arlon, Luxembourg, Belgium — Yesterday and Last 2 Weeks

Currently: 48 °F. Passing clouds. (Weather station: Luxembourg Airport, Belgium). See more current weather

Past Weather in Arlon — Graph

°F

Arlon Temperature Yesterday

Maximum temperature yesterday: 55 °F (at 2:20 pm)
Minimum temperature yesterday: 34 °F (at 6:20 am)
Average temperature yesterday: 45 °F

High & Low Weather Summary for the Past Weeks

 TemperatureHumidityPressure
High66 °F (Oct 19, 2:50 pm)100% (Oct 12, 2:20 am)30.36 "Hg (Oct 12, 2:20 am)
Low34 °F (Oct 22, 6:20 am)51% (Oct 14, 4:20 pm)29.42 "Hg (Oct 21, 2:50 am)
Average47 °F88%30.14 "Hg
* Reported Oct 11 8:20 pm — Oct 26 8:50 pm, Arlon. Weather by CustomWeather, © 2021

Note: Actual official high and low records may vary slightly from our data, if they occured in-between our weather recording intervals... More about our weather records

Arlon Weather History for the Previous 24 Hours

Scroll right to see more
 ConditionsComfort  
Time TempWeatherWind HumidityBarometerVisibility
8:50 pm
Tue, Oct 26
48 °FPartly cloudy.6 mph94%30.27 "HgN/A
8:20 pm48 °FPassing clouds.6 mph94%30.27 "HgN/A
7:50 pm50 °FPassing clouds.6 mph88%30.27 "HgN/A
7:20 pm50 °FPassing clouds.8 mph88%30.24 "HgN/A
6:50 pm50 °FPassing clouds.9 mph88%30.24 "HgN/A
6:20 pm50 °FPartly sunny.9 mph82%30.24 "HgN/A
5:50 pm52 °FPartly sunny.8 mph77%30.24 "HgN/A
5:20 pm52 °FPartly sunny.12 mph77%30.24 "HgN/A
4:50 pm52 °FPartly sunny.12 mph77%30.24 "HgN/A
4:20 pm54 °FPartly sunny.12 mph77%30.21 "HgN/A
3:50 pm54 °FPartly sunny.13 mph72%30.21 "HgN/A
3:20 pm54 °FPartly sunny.13 mph77%30.21 "HgN/A
2:50 pm54 °FBroken clouds.12 mph77%30.21 "HgN/A
2:20 pm54 °FPartly sunny.9 mph77%30.21 "HgN/A
1:50 pm54 °FPartly sunny.13 mph77%30.21 "HgN/A
1:20 pm54 °FScattered clouds.14 mph77%30.21 "HgN/A
12:50 pm52 °FScattered clouds.13 mph88%30.21 "HgN/A
12:20 pm52 °FPassing clouds.9 mph88%30.21 "HgN/A
11:50 am52 °FPassing clouds.10 mph88%30.21 "HgN/A
11:20 am52 °FBroken clouds.8 mph94%30.21 "HgN/A
10:50 am50 °FBroken clouds.9 mph94%30.21 "Hg4 mi
10:20 am50 °FDrizzle. Fog.8 mph94%30.21 "Hg2 mi
9:50 am50 °FDrizzle. Fog.7 mph94%30.21 "Hg2 mi
9:20 am50 °FFog.6 mph94%30.21 "Hg1 mi
8:50 am48 °FDrizzle. Fog.7 mph100%30.18 "Hg1 mi
8:20 am48 °FDrizzle. Fog.6 mph100%30.18 "Hg1 mi
7:50 am48 °FFog.6 mph100%30.15 "Hg1 mi
7:20 am48 °FFog.7 mph100%30.15 "Hg1 mi
6:50 am48 °FFog.5 mph100%30.15 "Hg1 mi
6:20 am48 °FFog.5 mph100%30.15 "Hg0 mi
5:50 am48 °FFog.3 mph100%30.15 "Hg1 mi
5:20 am48 °FDrizzle. Fog.5 mph100%30.15 "Hg1 mi
4:50 am48 °FFog.5 mph100%30.15 "Hg1 mi
4:20 am48 °FFog.6 mph100%30.15 "Hg2 mi
3:50 am48 °FMostly cloudy.6 mph100%30.15 "HgN/A
3:20 am48 °FDrizzle. Fog.7 mph100%30.15 "Hg1 mi
2:50 am48 °FOvercast.8 mph100%30.12 "Hg6 mi
2:20 am48 °FMostly cloudy.9 mph100%30.12 "HgN/A
1:50 am48 °FPassing clouds.9 mph100%30.12 "HgN/A
1:20 am48 °FPartly cloudy.8 mph94%30.12 "HgN/A
12:50 am48 °FPassing clouds.10 mph100%30.12 "HgN/A
12:20 am48 °FPassing clouds.12 mph94%30.15 "HgN/A
11:50 pm
Mon, Oct 25
50 °FPassing clouds.9 mph94%30.12 "HgN/A
11:20 pm50 °FPassing clouds.13 mph94%30.12 "HgN/A
10:50 pm50 °FPassing clouds.10 mph94%30.12 "HgN/A
10:20 pm50 °FPassing clouds.10 mph94%30.12 "HgN/A
Weather by CustomWeather, © 2021

See weather overview